| time (UTC) | temp C | wind direction | speed KPH | gust KPH | rain 1hr cm | rain 24hr cm | rain mn cm | humidity % | barometer mb |
| 20260504174915 | 27 | 321 | 20.9 | 37.0 | 0.00 | 0.00 | 0.00 | 24 | 999.1 |
| 20260504173914 | 27 | 301 | 25.7 | 35.4 | 0.00 | 0.00 | 0.00 | 22 | 999.2 |
| 20260504171915 | 27 | 309 | 22.5 | 33.8 | 0.00 | 0.00 | 0.00 | 23 | 999.4 |
| 20260504170914 | 27 | 301 | 16.1 | 32.2 | 0.00 | 0.00 | 0.00 | 23 | 999.3 |
| 20260504150914 | 20 | 290 | 14.5 | 24.1 | 0.00 | 0.00 | 0.00 | 44 | 999.9 |
| 20260504140914 | 16 | 329 | 16.1 | 20.9 | 0.00 | 0.00 | 0.00 | 54 | 1000.3 |
| 20260504080914 | 12 | 160 | 8.0 | 11.3 | 0.00 | 0.00 | 0.00 | 57 | 1000.7 |
| 20260504044915 | 15 | 152 | 8.0 | 12.9 | 0.00 | 0.00 | 0.00 | 51 | 1003.5 |
| 20260504041914 | 15 | 121 | 8.0 | 9.7 | 0.00 | 0.00 | 0.00 | 49 | 1004.0 |
| 20260504033914 | 16 | 140 | 8.0 | 11.3 | 0.00 | 0.00 | 0.00 | 49 | 1004.7 |
| 20260504031916 | 16 | 113 | 4.8 | 9.7 | 0.00 | 0.00 | 0.00 | 48 | 1004.8 |
| 20260504024916 | 17 | 102 | 6.4 | 9.7 | 0.00 | 0.00 | 0.00 | 45 | 1004.8 |
| 20260504020914 | 18 | 49 | 4.8 | 8.0 | 0.00 | 0.00 | 0.00 | 41 | 1005.0 |
| 20260504013914 | 19 | 64 | 3.2 | 4.8 | 0.00 | 0.00 | 0.00 | 38 | 1005.0 |
| 20260504010914 | 20 | 41 | 4.8 | 11.3 | 0.00 | 0.00 | 0.00 | 36 | 1005.0 |
| 20260504004915 | 22 | 39 | 9.7 | 12.9 | 0.00 | 0.00 | 0.00 | 32 | 1005.2 |
| 20260504003914 | 22 | 41 | 11.3 | 14.5 | 0.00 | 0.00 | 0.00 | 30 | 1005.1 |
| 20260504001914 | 23 | 47 | 9.7 | 16.1 | 0.00 | 0.00 | 0.00 | 30 | 1005.3 |
| 20260504000914 | 23 | 49 | 8.0 | 11.3 | 0.00 | 0.00 | 0.00 | 29 | 1005.5 |
| 20260503231914 | 23 | 82 | 8.0 | 12.9 | 0.00 | 0.00 | 0.00 | 28 | 1006.0 |
| 20260503230915 | 23 | 70 | 8.0 | 14.5 | 0.00 | 0.00 | 0.00 | 29 | 1005.9 |
| 20260503221914 | 25 | 86 | 4.8 | 12.9 | 0.00 | 0.00 | 0.00 | 28 | 1006.3 |
| 20260503220914 | 24 | 309 | 4.8 | 14.5 | 0.00 | 0.00 | 0.00 | 28 | 1006.4 |
| 20260503213914 | 25 | 301 | 4.8 | 19.3 | 0.00 | 0.00 | 0.00 | 25 | 1006.6 |
| 20260503211915 | 25 | 39 | 12.9 | 20.9 | 0.00 | 0.00 | 0.00 | 26 | 1006.9 |
| 20260503210914 | 25 | 30 | 16.1 | 22.5 | 0.00 | 0.00 | 0.00 | 27 | 1007.0 |
| 20260503203914 | 25 | 27 | 14.5 | 22.5 | 0.00 | 0.00 | 0.00 | 27 | 1007.4 |
| 20260503201914 | 25 | 7 | 11.3 | 19.3 | 0.00 | 0.00 | 0.00 | 26 | 1007.7 |
| 20260503194914 | 25 | 326 | 11.3 | 22.5 | 0.00 | 0.00 | 0.00 | 31 | 1007.9 |
| 20260503191913 | 24 | 11 | 12.9 | 24.1 | 0.00 | 0.00 | 0.00 | 30 | 1008.2 |